Radiation Dose at Monitoring Post of Fukushima Daini Nuclear Power Station
Date,Time,MP-1(microSv/h),MP-2(microSv/h),MP-3(microSv/h),MP-4(microSv/h),MP-5(microSv/h),MP-6(microSv/h),MP-7(microSv/h),Wind Direction,Wind Velocity(m/s),Rain
2017/12/28,00:00,0.340,0.205,0.345,0.322,0.307,0.170,0.101,west-northwest,6.5,No
2017/12/28,00:10,0.341,0.206,0.346,0.320,0.306,0.170,0.102,northwest,6.2,No
2017/12/28,00:20,0.340,0.206,0.344,0.320,0.305,0.170,0.102,west-northwest,8.7,No
2017/12/28,00:30,0.341,0.206,0.345,0.322,0.305,0.170,0.101,west-northwest,5.9,No
2017/12/28,00:40,0.340,0.206,0.345,0.321,0.307,0.170,0.101,west-northwest,8.7,No
2017/12/28,00:50,0.338,0.206,0.345,0.321,0.306,0.170,0.101,west,14.0,No
2017/12/28,01:00,0.340,0.205,0.343,0.321,0.304,0.170,0.101,west,17.6,No
2017/12/28,01:10,0.338,0.203,0.345,0.322,0.304,0.170,0.102,west-southwest,21.0,No
2017/12/28,01:20,0.338,0.204,0.344,0.321,0.304,0.170,0.101,-,CALM,No
2017/12/28,01:30,0.339,0.203,0.345,0.321,0.305,0.168,0.102,-,CALM,No
2017/12/28,01:40,0.339,0.203,0.343,0.321,0.305,0.170,0.101,-,CALM,No
2017/12/28,01:50,0.340,0.203,0.344,0.323,0.306,0.170,0.101,west-northwest,20.0,No
2017/12/28,02:00,0.341,0.204,0.345,0.323,0.306,0.171,0.102,west,15.7,No
2017/12/28,02:10,0.341,0.204,0.345,0.322,0.306,0.169,0.101,-,CALM,No
2017/12/28,02:20,0.342,0.204,0.344,0.322,0.307,0.170,0.101,west,17.5,No
2017/12/28,02:30,0.340,0.205,0.346,0.321,0.306,0.170,0.101,west,18.2,No
2017/12/28,02:40,0.340,0.204,0.344,0.322,0.308,0.171,0.101,west-northwest,17.4,No
2017/12/28,02:50,0.340,0.205,0.346,0.321,0.308,0.169,0.102,west,16.9,No
2017/12/28,03:00,0.340,0.206,0.345,0.322,0.309,0.170,0.101,west,13.7,No
2017/12/28,03:10,0.340,0.205,0.343,0.321,0.308,0.169,0.102,west,16.3,No
2017/12/28,03:20,0.339,0.205,0.345,0.322,0.310,0.169,0.101,west-northwest,13.4,No
2017/12/28,03:30,0.341,0.206,0.343,0.321,0.308,0.169,0.101,west-northwest,12.6,No
2017/12/28,03:40,0.340,0.205,0.344,0.322,0.308,0.170,0.101,west,14.0,No
2017/12/28,03:50,0.339,0.205,0.345,0.321,0.308,0.170,0.101,west-northwest,12.6,No
2017/12/28,04:00,0.340,0.205,0.345,0.322,0.309,0.169,0.102,west-northwest,14.6,No
2017/12/28,04:10,0.340,0.207,0.346,0.322,0.307,0.170,0.101,west-northwest,11.8,No
2017/12/28,04:20,0.340,0.207,0.346,0.323,0.307,0.170,0.101,west-northwest,12.4,No
2017/12/28,04:30,0.339,0.205,0.345,0.322,0.307,0.170,0.101,west-northwest,12.2,No
2017/12/28,04:40,0.342,0.205,0.345,0.321,0.306,0.169,0.102,west-northwest,11.0,No
2017/12/28,04:50,0.339,0.206,0.344,0.322,0.307,0.169,0.101,west-northwest,12.1,No
2017/12/28,05:00,0.340,0.206,0.345,0.320,0.307,0.170,0.102,west-northwest,10.9,No
2017/12/28,05:10,0.340,0.205,0.345,0.323,0.307,0.169,0.101,west-northwest,10.9,No
2017/12/28,05:20,0.339,0.206,0.344,0.322,0.306,0.170,0.103,west-northwest,9.0,No
2017/12/28,05:30,0.341,0.206,0.345,0.320,0.307,0.170,0.102,west-northwest,9.5,No
2017/12/28,05:40,0.340,0.204,0.345,0.321,0.306,0.170,0.102,west-northwest,10.0,No
2017/12/28,05:50,0.339,0.205,0.345,0.321,0.307,0.170,0.101,west-northwest,9.5,No
2017/12/28,06:00,0.340,0.207,0.344,0.321,0.306,0.169,0.101,west-northwest,11.2,No
2017/12/28,06:10,0.339,0.206,0.345,0.321,0.307,0.169,0.101,west-northwest,10.7,No
2017/12/28,06:20,0.340,0.205,0.344,0.322,0.306,0.170,0.102,west-northwest,9.8,No
2017/12/28,06:30,0.339,0.206,0.344,0.321,0.306,0.170,0.101,west-northwest,8.7,No
2017/12/28,06:40,0.339,0.207,0.343,0.321,0.305,0.170,0.101,west-northwest,9.8,No
2017/12/28,06:50,0.340,0.206,0.344,0.322,0.306,0.169,0.101,west-northwest,9.5,No
2017/12/28,07:00,0.339,0.206,0.343,0.321,0.306,0.169,0.101,west-northwest,10.1,No
2017/12/28,07:10,0.340,0.205,0.343,0.320,0.306,0.169,0.101,west-northwest,10.4,No
2017/12/28,07:20,0.339,0.206,0.344,0.320,0.306,0.168,0.101,west-northwest,12.6,No
2017/12/28,07:30,0.338,0.206,0.344,0.322,0.306,0.170,0.101,northwest,9.6,No
2017/12/28,07:40,0.339,0.206,0.344,0.322,0.306,0.169,0.101,west-northwest,10.6,No
2017/12/28,07:50,0.341,0.205,0.344,0.321,0.304,0.170,0.101,west-northwest,8.1,No
2017/12/28,08:00,0.341,0.205,0.346,0.322,0.307,0.169,0.101,west-northwest,10.6,No
2017/12/28,08:10,0.339,0.206,0.345,0.320,0.305,0.169,0.100,northwest,8.7,No
2017/12/28,08:20,0.339,0.205,0.344,0.320,0.304,0.169,0.102,west-northwest,9.0,No
2017/12/28,08:30,0.340,0.205,0.345,0.321,0.306,0.169,0.102,west-northwest,8.4,No
2017/12/28,08:40,0.340,0.206,0.344,0.320,0.306,0.169,0.102,west,10.1,No
2017/12/28,08:50,0.340,0.206,0.344,0.320,0.307,0.169,0.100,west,9.8,No
2017/12/28,09:00,0.339,0.206,0.345,0.320,0.307,0.168,0.101,west,9.8,No
2017/12/28,09:10,0.340,0.205,0.345,0.321,0.308,0.169,0.101,west,9.5,No
2017/12/28,09:20,0.340,0.205,0.344,0.320,0.305,0.168,0.101,west,6.0,No
2017/12/28,09:30,0.339,0.205,0.342,0.319,0.305,0.169,0.101,west-northwest,6.3,No
2017/12/28,09:40,0.338,0.205,0.343,0.320,0.306,0.170,0.101,northwest,6.2,No
2017/12/28,09:50,0.339,0.204,0.345,0.321,0.305,0.169,0.102,west,6.7,No
2017/12/28,10:00,0.340,0.205,0.344,0.319,0.305,0.169,0.101,west-northwest,7.3,No
2017/12/28,10:10,0.340,0.206,0.344,0.322,0.305,0.170,0.101,west-northwest,7.5,No
2017/12/28,10:20,0.339,0.204,0.345,0.322,0.306,0.170,0.101,west-northwest,8.1,No
2017/12/28,10:30,0.338,0.204,0.343,0.320,0.305,0.169,0.101,west-northwest,7.5,No
2017/12/28,10:40,0.338,0.205,0.343,0.322,0.305,0.170,0.102,west-northwest,7.0,No
2017/12/28,10:50,0.340,0.205,0.343,0.320,0.306,0.169,0.102,west-northwest,7.3,No
2017/12/28,11:00,0.339,0.206,0.343,0.321,0.305,0.170,0.101,northwest,7.3,No
2017/12/28,11:10,0.337,0.204,0.344,0.321,0.304,0.171,0.101,northwest,7.5,No
2017/12/28,11:20,0.341,0.205,0.344,0.321,0.304,0.170,0.101,west-northwest,6.7,No
2017/12/28,11:30,0.340,0.206,0.343,0.321,0.305,0.170,0.101,west-northwest,8.7,No
2017/12/28,11:40,0.338,0.205,0.343,0.321,0.306,0.170,0.102,west-northwest,9.0,No
2017/12/28,11:50,0.340,0.205,0.343,0.322,0.306,0.169,0.101,west-northwest,9.2,No
2017/12/28,12:00,0.340,0.206,0.342,0.320,0.304,0.169,0.101,northwest,5.9,No
2017/12/28,12:10,0.338,0.206,0.342,0.320,0.305,0.170,0.101,north-northwest,4.0,No
2017/12/28,12:20,0.340,0.204,0.344,0.323,0.306,0.170,0.100,northwest,10.9,No
2017/12/28,12:30,0.340,0.205,0.343,0.321,0.305,0.170,0.100,northwest,8.4,No
2017/12/28,12:40,0.340,0.205,0.343,0.321,0.304,0.170,0.101,west,12.2,No
2017/12/28,12:50,0.340,0.205,0.343,0.322,0.305,0.170,0.101,west-northwest,8.7,No
2017/12/28,13:00,0.340,0.206,0.345,0.321,0.307,0.169,0.101,west-northwest,9.8,No
2017/12/28,13:10,0.340,0.205,0.343,0.321,0.305,0.169,0.101,west-northwest,10.1,No
2017/12/28,13:20,0.339,0.205,0.344,0.322,0.306,0.169,0.101,west-northwest,12.9,No
2017/12/28,13:30,0.339,0.206,0.344,0.321,0.306,0.170,0.101,west-northwest,11.5,No
2017/12/28,13:40,0.340,0.205,0.345,0.322,0.308,0.169,0.101,northwest,5.1,No
2017/12/28,13:50,0.339,0.205,0.345,0.323,0.307,0.170,0.100,northwest,8.7,No
2017/12/28,14:00,0.339,0.205,0.344,0.320,0.307,0.169,0.101,northwest,6.8,No
2017/12/28,14:10,0.341,0.206,0.344,0.321,0.308,0.171,0.101,west-northwest,6.2,No
2017/12/28,14:20,0.341,0.206,0.345,0.322,0.304,0.169,0.101,west-northwest,6.5,No
2017/12/28,14:30,0.341,0.205,0.343,0.321,0.305,0.169,0.101,north-northwest,8.7,No
2017/12/28,14:40,0.340,0.205,0.343,0.321,0.306,0.169,0.102,west-northwest,7.0,No
2017/12/28,14:50,0.339,0.204,0.343,0.322,0.306,0.170,0.101,northwest,6.7,No
2017/12/28,15:00,0.341,0.205,0.344,0.321,0.307,0.170,0.101,northwest,5.5,No
2017/12/28,15:10,0.340,0.205,0.345,0.323,0.308,0.170,0.101,west-northwest,5.5,No
2017/12/28,15:20,0.340,0.207,0.344,0.322,0.307,0.169,0.101,west,5.2,No
2017/12/28,15:30,0.342,0.206,0.344,0.324,0.308,0.170,0.101,north-northwest,2.7,No
2017/12/28,15:40,0.340,0.206,0.344,0.322,0.306,0.169,0.101,north-northwest,6.2,No
2017/12/28,15:50,0.341,0.206,0.345,0.322,0.308,0.170,0.101,northwest,4.2,No
2017/12/28,16:00,0.341,0.206,0.345,0.321,0.308,0.170,0.102,west-northwest,5.6,No
2017/12/28,16:10,0.340,0.206,0.345,0.323,0.306,0.169,0.101,west-northwest,4.5,No
2017/12/28,16:20,0.340,0.205,0.345,0.323,0.307,0.170,0.101,northwest,7.3,No
2017/12/28,16:30,0.340,0.206,0.344,0.322,0.306,0.171,0.102,northwest,6.5,No
2017/12/28,16:40,0.340,0.205,0.345,0.322,0.307,0.170,0.101,northwest,9.5,No
2017/12/28,16:50,0.340,0.205,0.345,0.322,0.307,0.170,0.101,northwest,5.2,No
2017/12/28,17:00,0.340,0.207,0.345,0.322,0.308,0.170,0.101,north-northwest,3.6,No
2017/12/28,17:10,0.341,0.205,0.343,0.323,0.306,0.169,0.101,northwest,3.6,No
2017/12/28,17:20,0.341,0.205,0.343,0.322,0.306,0.170,0.101,northwest,3.6,No
2017/12/28,17:30,0.341,0.206,0.345,0.322,0.305,0.170,0.102,northwest,5.7,No
2017/12/28,17:40,0.340,0.206,0.346,0.322,0.305,0.170,0.101,northwest,4.3,No
2017/12/28,17:50,0.341,0.206,0.344,0.323,0.306,0.170,0.101,northwest,7.1,No
2017/12/28,18:00,0.340,0.205,0.344,0.323,0.306,0.170,0.101,northwest,7.3,No
2017/12/28,18:10,0.341,0.206,0.343,0.322,0.307,0.170,0.102,northwest,5.3,No
2017/12/28,18:20,0.342,0.205,0.344,0.322,0.306,0.171,0.101,northwest,7.0,No
2017/12/28,18:30,0.339,0.205,0.345,0.322,0.306,0.170,0.102,northwest,7.8,No
2017/12/28,18:40,0.339,0.205,0.345,0.323,0.306,0.169,0.102,north-northwest,6.5,No
2017/12/28,18:50,0.341,0.206,0.344,0.323,0.305,0.170,0.102,north,6.4,No
2017/12/28,19:00,0.340,0.206,0.346,0.323,0.304,0.169,0.101,northwest,5.9,No
2017/12/28,19:10,0.341,0.206,0.345,0.322,0.306,0.170,0.101,northwest,7.0,No
2017/12/28,19:20,0.341,0.205,0.344,0.322,0.306,0.169,0.101,north-northwest,5.6,No
2017/12/28,19:30,0.341,0.206,0.344,0.324,0.307,0.169,0.102,north-northwest,4.4,No
2017/12/28,19:40,0.339,0.207,0.343,0.324,0.307,0.169,0.102,northwest,2.5,No
2017/12/28,19:50,0.341,0.206,0.345,0.322,0.307,0.170,0.102,north-northeast,3.3,No
2017/12/28,20:00,0.342,0.205,0.344,0.323,0.306,0.170,0.101,north-northwest,2.0,No
2017/12/28,20:10,0.340,0.204,0.344,0.323,0.307,0.169,0.101,north-northeast,3.3,No
2017/12/28,20:20,0.341,0.205,0.344,0.321,0.306,0.170,0.101,north,2.6,No
2017/12/28,20:30,0.342,0.205,0.345,0.322,0.307,0.170,0.102,north,3.2,No
2017/12/28,20:40,0.341,0.207,0.344,0.323,0.305,0.170,0.102,northwest,3.6,No
2017/12/28,20:50,0.341,0.206,0.344,0.322,0.306,0.170,0.101,north,2.8,No
2017/12/28,21:00,0.341,0.206,0.345,0.321,0.306,0.169,0.102,north-northwest,2.8,No
2017/12/28,21:10,0.341,0.206,0.345,0.323,0.306,0.169,0.101,north,3.0,No
2017/12/28,21:20,0.340,0.205,0.344,0.323,0.306,0.170,0.102,north,5.1,No
2017/12/28,21:30,0.341,0.206,0.345,0.323,0.306,0.170,0.101,north,4.5,No
2017/12/28,21:40,0.342,0.205,0.343,0.323,0.304,0.170,0.102,north,4.5,No
2017/12/28,21:50,0.341,0.206,0.346,0.322,0.306,0.170,0.101,north,3.9,No
2017/12/28,22:00,0.340,0.205,0.346,0.324,0.304,0.170,0.101,north,6.0,No
2017/12/28,22:10,0.340,0.204,0.343,0.323,0.305,0.171,0.102,north-northwest,4.2,No
2017/12/28,22:20,0.340,0.206,0.345,0.321,0.305,0.170,0.101,north-northwest,4.8,No
2017/12/28,22:30,0.341,0.205,0.345,0.323,0.304,0.170,0.101,west-northwest,4.5,No
2017/12/28,22:40,0.340,0.207,0.346,0.323,0.304,0.171,0.101,west,1.9,No
2017/12/28,22:50,0.341,0.206,0.344,0.322,0.305,0.171,0.102,north-northwest,2.0,No
2017/12/28,23:00,0.341,0.206,0.344,0.322,0.305,0.171,0.101,-,CALM,No
2017/12/28,23:10,0.341,0.206,0.344,0.323,0.305,0.170,0.101,northwest,3.6,No
2017/12/28,23:20,0.340,0.206,0.345,0.323,0.306,0.169,0.101,northwest,3.7,No
2017/12/28,23:30,0.341,0.205,0.344,0.323,0.305,0.170,0.102,-,CALM,No
2017/12/28,23:40,0.341,0.206,0.343,0.323,0.305,0.170,0.101,southwest,0.8,No
2017/12/28,23:50,0.341,0.206,0.344,0.322,0.305,0.170,0.102,north-northwest,1.7,No
